SCP
0 0 0 0 0 0 0 0 0 0 0 0 0 0 0 0 0 0 0 0 0 0 0 0 0 0 0 0 0 0 -0 0 0 0 0 0 0 -0 -0 0 0 0 0 0
0 0 0 0 0 0 0 0 0 0 0 0 0 0 0 0 0 0 0 0 0 0 0 0 0 0 0 0 -0 0 0 0 0 0 0 0 0 0 0 0 0 -0 -0 0
0 0 0 0 0 0 0 0 0 0 0 0 0 0 0 0 0 0 0 0 0 0 0 0 0 -0 0 0 -0 0 0 0 0 0 0 0 0 0 0 0 0 -0 0 0
0 0 0 0 0 0 0 0 0 0 0 0 0 0 0 0 0 0 0 0 0 0 0 -0 -0 0 0 0 0 0 0 0 0 0 0 0 0 0 0 0 0 0 0 0
0 0 0 0 0 0 0 0 0 0 0 0 0 0 0 0 0 0 0 0 0 0 0 0 0 0 0 0 0 0 0 0 0 0 0 0 0 0 0 0 0 0 0 0
0 0 0 0 0 0 0 0 0 0 0 0 0 0 0 0 0 0 0 0 0 0 0 0 0 0 0 0 0 0 0 0 0 0 0 0 0 0 0 0 0 0 0 0
0 0 0 0 0 0 0 0 0 0 0 0 0 0 0 0 0 0 0 0 0 0 0 0 0 0 0 0 0 0 0 0 0 0 0 0 0 0 0 0 0 0 0 0
0 0 0 0 0 0 0 0 0 0 0 0 0 0 0 0 0 0 0 0 0 0 0 0 0 0 0 0 0 0 0 0 0 0 0 0 0 0 0 0 0 0 0 0
0 0 0 0 0 0 0 0 0 0 0 0 0 0 0 0 0 0 0 0 0 0 0 0 0 0 0 0 0 0 0 1 0 0 0 -0 -0 0 0 0 0 0 0 0
0 0 0 0 0 0 0 0 0 0 0 0 0 0 0 0 0 0 0 0 0 0 0 0 0 0 0 0 0 0 0 0 0 0 0 0 0 0 0 0 0 0 0 0
0 0 0 0 0 0 0 0 0 0 0 0 0 0 0 0 0 0 0 0 0 0 0 0 0 0 0 0 0 0 0 0 0 0 0 0 0 -0 -0 0 0 0 0 0
0 0 0 0 0 0 0 0 0 0 0 0 0 0 0 0 0 0 0 0 2 1 1 0 0 0 0 0 0 0 0 0 0 0 1 0 -0 -0 0 0 0 0 0 0
0 0 0 0 0 0 0 0 0 0 0 0 0 0 0 0 0 0 0 0 0 0 0 1 1 0 -0 -0 0 0 0 0 0 0 0 0 0 0 0 0 0 0 0 0
0 0 0 0 0 0 0 0 0 0 0 0 0 0 0 0 0 0 0 0 0 0 0 0 1 0 0 0 0 0 0 0 0 0 0 0 0 0 0 0 0 0 0 0
0 0 0 0 0 0 0 0 0 0 0 0 0 0 0 0 0 0 0 0 0 0 0 1 1 1 0 0 0 0 0 0 0 0 0 0 0 0 0 0 0 0 0 0
0 0 0 0 0 0 0 0 0 0 0 0 0 0 0 0 0 0 0 0 0 0 0 1 1 1 1 0 0 1 0 1 0 0 0 0 0 0 0 0 0 0 0 0
0 0 0 0 0 0 0 0 0 0 0 0 0 0 0 0 0 0 0 0 0 0 0 1 1 0 0 0 0 0 0 0 0 0 0 0 0 0 0 0 0 0 0 0
0 0 0 0 0 0 0 0 0 0 0 0 0 0 0 0 0 0 0 0 0 0 1 1 1 1 1 0 0 0 0 0 0 0 0 0 0 0 0 0 0 0 0 0
0 0 0 0 0 0 0 0 -0 0 0 0 0 0 0 0 0 0 0 0 0 0 1 1 0 0 0 0 0 0 0 0 0 0 0 0 0 0 0 0 0 0 0 0
0 0 0 0 0 0 0 0 0 0 0 0 0 0 0 0 0 0 0 0 0 0 0 0 1 0 0 0 0 0 0 0 -0 0 0 0 0 0 0 0 0 0 0 0
0 0 0 0 0 0 0 0 0 0 0 -0 0 0 0 0 0 0 0 0 0 0 0 0 0 0 0 0 0 0 0 -0 0 0 0 0 0 0 0 0 0 0 0 0
0 0 0 0 0 0 0 0 0 0 0 0 0 0 0 0 0 0 1 0 1 0 0 0 0 0 0 0 0 0 0 0 0 0 0 -0 -0 0 0 0 0 0 0 0
0 0 0 0 0 0 0 0 0 0 0 0 0 0 0 0 0 0 0 0 0 0 0 0 0 1 0 0 0 0 0 0 0 0 -0 -0 -0 -0 0 0 0 -0 -0 0
0 0 0 0 0 0 0 0 0 0 0 0 0 0 0 0 0 0 0 0 0 0 0 0 0 0 0 0 0 0 0 0 0 0 -0 -0 -0 -0 -0 -0 -0 -0 -0 -0
0 0 0 0 0 0 0 0 0 0 0 0 0 0 0 0 0 0 0 0 0 0 0 0 0 1 0 0 0 0 0 0 0 0 -0 -0 -0 -0 -0 -0 -0 -0 -0 -0
0 0 0 0 0 0 0 0 0 0 0 0 0 0 0 0 0 0 0 0 0 0 0 0 1 0 0 0 0 0 0 0 0 0 -0 0 -0 -0 -0 -0 -0 -0 -0 0
0 0 0 0 0 0 0 0 0 0 0 0 0 0 0 0 0 0 0 0 0 0 0 1 1 1 1 0 0 0 0 0 0 0 0 0 0 0 0 -0 -0 -0 -0 0
Wind_Speed_500mb
14 14 15 18 18 13 9 18 15 10 18 24 32 26 29 12 21 14 11 11 23 13 15 22 35 32 27 34 43 46 37 15 16 34 31 22 21 35 31 18 22 12 11 11
14 13 13 14 13 12 15 20 27 12 22 17 23 32 31 17 23 18 9 11 16 14 10 11 29 17 16 17 40 44 31 14 23 19 17 15 23 21 24 15 10 29 26 6
14 12 12 12 12 14 15 14 9 18 27 44 26 28 26 31 28 25 17 18 20 17 21 21 13 29 14 20 40 20 31 27 32 20 32 31 32 33 19 16 16 27 4 14
15 14 12 11 13 14 13 15 13 6 16 28 27 27 21 32 20 27 21 20 27 20 17 25 29 22 23 17 20 18 16 27 26 21 5 4 12 20 19 17 27 18 28 21
15 15 13 12 12 18 19 10 11 18 28 11 35 19 26 26 30 14 26 26 28 13 22 14 8 22 19 29 16 28 25 21 25 14 10 12 15 15 13 17 13 16 11 19
14 15 15 12 11 15 10 15 20 18 17 21 22 26 31 29 20 20 33 24 6 21 8 15 29 29 21 20 25 28 28 13 18 24 14 17 20 15 15 15 12 18 18 21
13 16 15 13 10 12 11 10 12 19 21 22 25 34 32 24 21 25 22 7 16 16 22 31 26 26 22 18 18 23 24 23 20 8 15 16 10 14 10 15 21 12 3 4
14 15 16 14 11 11 16 11 9 12 17 23 27 12 7 24 25 22 22 25 16 20 24 19 9 18 23 25 23 18 21 21 5 8 12 7 7 10 13 20 27 24 13 13
16 16 16 16 12 11 10 17 13 9 16 17 13 17 26 22 24 28 34 23 12 13 18 20 20 20 24 19 19 13 14 11 13 10 7 12 6 22 6 15 23 28 19 21
17 17 17 18 14 11 8 15 13 12 11 33 9 9 17 21 15 12 15 3 16 17 19 21 21 18 16 29 32 27 20 17 16 10 15 4 9 11 9 16 5 15 20 26
17 18 18 18 16 12 7 14 16 15 18 45 18 21 21 15 13 18 12 11 16 15 22 23 19 9 10 12 17 33 20 16 16 19 16 16 23 18 27 4 5 13 19 26
18 18 19 19 19 13 11 14 14 12 19 25 22 27 27 23 15 20 15 10 6 22 9 11 3 9 5 24 17 5 9 6 6 21 9 12 25 15 16 10 15 15 20 25
20 19 19 19 21 15 11 15 19 13 17 29 45 49 34 34 30 21 16 11 10 3 10 17 4 35 16 18 12 23 12 7 4 6 21 21 23 13 13 11 14 17 23 31
22 20 19 21 22 18 11 10 14 12 11 11 22 16 41 33 27 27 29 25 19 18 16 20 9 12 6 12 12 9 10 14 6 4 8 13 17 18 15 15 18 23 28 34
22 20 21 21 22 20 12 13 15 17 15 9 25 38 27 25 24 27 26 24 20 18 15 13 11 9 7 3 2 15 23 15 11 3 18 10 21 21 19 22 25 28 33 33
23 21 21 21 21 21 13 13 21 19 17 8 8 22 24 29 29 26 26 23 20 21 14 15 9 3 8 8 7 15 12 18 15 15 15 27 29 25 23 24 26 28 29 27
23 22 21 21 20 21 21 4 8 12 16 6 7 13 30 26 22 26 26 22 19 19 24 26 28 15 11 6 8 13 14 16 20 24 34 27 27 24 26 27 25 29 26 28
24 20 19 18 17 23 21 19 11 4 14 4 6 12 18 37 17 21 29 21 21 18 21 15 14 18 14 11 17 29 26 22 20 14 7 13 23 31 32 29 30 30 32 33
24 19 16 8 11 20 20 16 8 4 8 5 9 13 13 37 30 29 27 22 11 15 14 22 18 15 13 15 19 33 21 19 8 13 18 26 31 33 32 31 32 33 34 36
26 22 11 16 21 18 9 9 7 8 11 6 11 41 17 29 38 19 18 20 11 11 20 27 10 22 27 24 24 30 43 33 32 31 30 31 31 33 34 32 31 31 36 38
30 20 16 8 20 18 14 13 13 13 9 18 27 40 13 27 8 11 13 9 8 11 22 20 17 22 25 27 21 21 35 36 33 21 21 28 30 35 36 34 33 35 37 38
31 12 13 15 16 14 11 11 10 9 12 28 32 41 30 14 6 9 13 7 5 15 27 21 27 23 34 36 27 20 27 34 34 28 24 28 31 35 35 35 36 37 37 37
27 13 13 11 12 10 12 17 9 9 14 20 26 28 26 14 9 7 8 12 13 9 14 16 21 32 42 46 29 24 28 33 31 26 31 32 36 35 36 37 37 39 38 37
18 14 6 10 12 14 15 18 15 13 8 25 19 31 24 16 10 5 10 8 6 12 19 22 17 32 39 45 41 37 38 36 34 34 35 38 39 37 35 36 39 40 40 38
13 13 10 17 26 20 18 16 4 4 15 19 19 22 19 15 9 12 11 8 14 14 19 16 35 36 40 43 42 39 39 39 37 37 39 39 39 40 38 37 37 37 39 38
9 14 13 17 22 21 17 15 7 7 12 18 18 8 11 13 12 9 14 8 14 12 11 24 27 27 33 36 37 37 38 39 39 38 39 41 42 41 39 39 37 37 38 38
10 18 25 20 24 6 6 9 7 19 11 9 12 11 17 11 17 18 7 9 9 16 26 23 24 22 27 31 34 38 40 41 40 40 42 43 41 40 41 41 38 36 35 33
Wind_Direction_500mb
271 282 282 275 272 282 264 261 238 180 186 207 221 227 230 28 271 224 260 278 288 285 242 217 235 210 212 193 215 201 214 242 214 203 203 255 271 237 247 248 259 315 278 317
265 273 282 281 264 244 220 255 252 216 191 223 222 222 240 234 256 235 237 251 245 206 274 254 228 224 236 197 203 198 192 224 236 157 198 207 245 232 263 276 315 281 289 81
259 264 276 279 249 232 226 270 225 192 210 245 292 209 216 228 219 257 257 280 302 255 244 242 243 224 159 219 217 148 203 227 234 221 226 202 209 238 229 241 259 284 131 185
256 256 265 272 246 228 215 243 252 337 202 221 233 259 211 222 211 216 214 247 244 242 255 219 220 230 164 203 151 199 195 233 232 247 307 225 186 213 227 237 259 284 321 346
251 252 261 269 257 229 225 281 295 237 272 254 210 211 234 230 208 221 209 236 219 252 246 312 311 239 206 186 178 215 200 239 231 192 186 183 210 220 241 275 300 278 290 288
244 251 253 267 268 236 239 250 279 284 237 214 232 217 228 217 234 214 257 224 335 256 337 346 306 294 303 316 175 191 192 214 220 205 196 227 233 238 251 272 259 284 309 75
241 246 248 261 270 240 253 254 281 276 248 229 207 231 211 228 200 248 203 191 264 15 324 304 263 255 238 235 228 188 201 214 222 158 180 216 48 355 306 269 277 267 228 159
244 241 243 247 263 261 242 256 224 279 282 254 236 253 233 239 247 242 256 250 265 313 299 254 201 188 204 206 178 195 197 206 161 213 227 342 311 273 240 241 256 232 238 147
240 238 238 237 255 268 259 244 237 261 306 249 326 239 220 240 225 226 226 232 255 276 270 230 215 186 195 178 167 165 184 251 205 158 200 238 254 298 235 260 258 241 187 167
237 235 234 232 242 261 261 248 233 232 284 271 278 266 314 248 304 251 171 156 244 220 245 250 217 223 239 190 178 175 177 189 192 197 251 225 150 222 169 230 339 90 157 166
237 234 230 229 232 255 268 260 230 235 231 261 287 264 294 326 277 271 38 228 206 225 241 248 240 91 314 203 140 168 180 163 236 225 207 220 165 174 221 126 134 146 155 160
235 234 230 227 225 245 263 249 243 275 244 258 267 275 260 265 280 318 303 328 319 23 290 278 48 90 3 228 156 133 208 177 335 346 85 320 157 74 117 135 150 154 153 157
229 232 231 228 224 234 247 257 256 253 290 293 259 257 254 250 250 249 278 97 1 86 336 320 58 264 193 203 153 175 167 146 233 242 142 155 157 143 158 153 145 146 152 157
226 230 229 229 225 228 235 273 244 230 292 272 283 233 237 243 239 237 242 264 300 297 288 281 286 276 355 24 45 291 112 157 177 319 129 139 165 170 165 160 146 141 148 156
224 225 226 229 226 226 248 262 260 212 234 317 293 300 242 221 221 228 234 244 270 274 244 225 244 328 304 317 287 236 170 214 205 101 140 98 127 156 156 152 147 148 152 155
219 221 223 227 225 217 255 220 253 227 222 292 296 288 244 211 215 218 220 230 242 236 244 250 262 359 287 230 209 33 82 70 43 107 101 108 125 137 144 145 146 149 152 155
213 217 219 224 224 211 237 279 166 198 176 234 274 251 215 198 191 213 219 223 230 229 233 237 251 182 215 231 197 111 106 101 100 113 105 109 128 141 143 144 146 145 148 151
204 210 212 222 227 231 241 249 282 297 191 258 251 268 166 186 187 212 205 205 208 218 240 232 232 192 230 242 192 146 136 103 126 165 34 159 147 142 142 146 144 147 149 151
193 193 194 211 215 218 214 225 262 261 198 273 258 252 205 175 203 217 191 208 209 216 216 235 210 220 215 208 252 191 207 184 163 174 138 143 151 149 148 152 155 154 152 154
177 163 180 207 199 215 198 189 201 207 201 238 262 247 272 200 189 214 175 193 221 208 214 214 222 237 203 225 217 236 182 169 176 175 160 167 164 161 162 163 159 157 158 157
163 186 213 159 168 180 192 209 203 179 210 211 236 234 247 230 225 207 215 193 223 220 178 198 204 222 191 194 204 192 186 192 195 190 176 180 174 169 166 162 159 159 160 160
179 191 185 153 182 210 210 193 191 203 225 188 209 204 209 246 225 95 272 230 226 229 148 192 227 199 166 165 172 146 170 175 172 177 170 168 168 169 166 161 159 160 161 162
181 214 197 193 196 212 212 193 186 216 213 208 190 187 197 207 177 78 300 211 235 160 196 195 216 135 156 167 161 172 170 168 162 159 161 160 161 162 162 159 159 160 161 163
200 196 237 222 203 215 213 226 187 205 310 317 252 178 188 189 158 117 267 251 309 223 195 199 165 157 166 169 172 169 170 165 165 162 160 157 156 155 157 160 161 161 162 163
219 203 221 209 240 282 206 142 138 297 307 319 269 193 206 195 172 185 225 242 187 218 202 184 138 146 162 168 167 166 166 165 164 162 159 156 154 156 157 160 161 162 162 163
232 224 247 232 219 236 208 200 148 247 295 300 254 220 187 213 166 188 216 228 217 161 142 94 116 151 162 161 160 161 163 164 161 162 159 157 158 159 158 158 162 165 164 166
238 223 222 240 214 216 355 139 157 200 270 232 200 211 196 171 215 213 229 201 57 83 94 91 100 145 159 160 158 160 163 162 160 159 158 157 156 156 156 159 164 166 167 168
Wind_Speed_850mb
14 14 15 18 18 13 9 18 15 10 18 24 32 26 29 12 21 14 11 11 23 13 15 22 35 32 27 34 43 46 37 15 16 34 31 22 21 35 31 18 22 12 11 11
14 13 13 14 13 12 15 20 27 12 22 17 23 32 31 17 23 18 9 11 16 14 10 11 29 17 16 17 40 44 31 14 23 19 17 15 23 21 24 15 10 29 26 6
14 12 12 12 12 14 15 14 9 18 27 44 26 28 26 31 28 25 17 18 20 17 21 21 13 29 14 20 40 20 31 27 32 20 32 31 32 33 19 16 16 27 4 14
15 14 12 11 13 14 13 15 13 6 16 28 27 27 21 32 20 27 21 20 27 20 17 25 29 22 23 17 20 18 16 27 26 21 5 4 12 20 19 17 27 18 28 21
15 15 13 12 12 18 19 10 11 18 28 11 35 19 26 26 30 14 26 26 28 13 22 14 8 22 19 29 16 28 25 21 25 14 10 12 15 15 13 17 13 16 11 19
14 15 15 12 11 15 10 15 20 18 17 21 22 26 31 29 20 20 33 24 6 21 8 15 29 29 21 20 25 28 28 13 18 24 14 17 20 15 15 15 12 18 18 21
13 16 15 13 10 12 11 10 12 19 21 22 25 34 32 24 21 25 22 7 16 16 22 31 26 26 22 18 18 23 24 23 20 8 15 16 10 14 10 15 21 12 3 4
14 15 16 14 11 11 16 11 9 12 17 23 27 12 7 24 25 22 22 25 16 20 24 19 9 18 23 25 23 18 21 21 5 8 12 7 7 10 13 20 27 24 13 13
16 16 16 16 12 11 10 17 13 9 16 17 13 17 26 22 24 28 34 23 12 13 18 20 20 20 24 19 19 13 14 11 13 10 7 12 6 22 6 15 23 28 19 21
17 17 17 18 14 11 8 15 13 12 11 33 9 9 17 21 15 12 15 3 16 17 19 21 21 18 16 29 32 27 20 17 16 10 15 4 9 11 9 16 5 15 20 26
17 18 18 18 16 12 7 14 16 15 18 45 18 21 21 15 13 18 12 11 16 15 22 23 19 9 10 12 17 33 20 16 16 19 16 16 23 18 27 4 5 13 19 26
18 18 19 19 19 13 11 14 14 12 19 25 22 27 27 23 15 20 15 10 6 22 9 11 3 9 5 24 17 5 9 6 6 21 9 12 25 15 16 10 15 15 20 25
20 19 19 19 21 15 11 15 19 13 17 29 45 49 34 34 30 21 16 11 10 3 10 17 4 35 16 18 12 23 12 7 4 6 21 21 23 13 13 11 14 17 23 31
22 20 19 21 22 18 11 10 14 12 11 11 22 16 41 33 27 27 29 25 19 18 16 20 9 12 6 12 12 9 10 14 6 4 8 13 17 18 15 15 18 23 28 34
22 20 21 21 22 20 12 13 15 17 15 9 25 38 27 25 24 27 26 24 20 18 15 13 11 9 7 3 2 15 23 15 11 3 18 10 21 21 19 22 25 28 33 33
23 21 21 21 21 21 13 13 21 19 17 8 8 22 24 29 29 26 26 23 20 21 14 15 9 3 8 8 7 15 12 18 15 15 15 27 29 25 23 24 26 28 29 27
23 22 21 21 20 21 21 4 8 12 16 6 7 13 30 26 22 26 26 22 19 19 24 26 28 15 11 6 8 13 14 16 20 24 34 27 27 24 26 27 25 29 26 28
24 20 19 18 17 23 21 19 11 4 14 4 6 12 18 37 17 21 29 21 21 18 21 15 14 18 14 11 17 29 26 22 20 14 7 13 23 31 32 29 30 30 32 33
24 19 16 8 11 20 20 16 8 4 8 5 9 13 13 37 30 29 27 22 11 15 14 22 18 15 13 15 19 33 21 19 8 13 18 26 31 33 32 31 32 33 34 36
26 22 11 16 21 18 9 9 7 8 11 6 11 41 17 29 38 19 18 20 11 11 20 27 10 22 27 24 24 30 43 33 32 31 30 31 31 33 34 32 31 31 36 38
30 20 16 8 20 18 14 13 13 13 9 18 27 40 13 27 8 11 13 9 8 11 22 20 17 22 25 27 21 21 35 36 33 21 21 28 30 35 36 34 33 35 37 38
31 12 13 15 16 14 11 11 10 9 12 28 32 41 30 14 6 9 13 7 5 15 27 21 27 23 34 36 27 20 27 34 34 28 24 28 31 35 35 35 36 37 37 37
27 13 13 11 12 10 12 17 9 9 14 20 26 28 26 14 9 7 8 12 13 9 14 16 21 32 42 46 29 24 28 33 31 26 31 32 36 35 36 37 37 39 38 37
18 14 6 10 12 14 15 18 15 13 8 25 19 31 24 16 10 5 10 8 6 12 19 22 17 32 39 45 41 37 38 36 34 34 35 38 39 37 35 36 39 40 40 38
13 13 10 17 26 20 18 16 4 4 15 19 19 22 19 15 9 12 11 8 14 14 19 16 35 36 40 43 42 39 39 39 37 37 39 39 39 40 38 37 37 37 39 38
9 14 13 17 22 21 17 15 7 7 12 18 18 8 11 13 12 9 14 8 14 12 11 24 27 27 33 36 37 37 38 39 39 38 39 41 42 41 39 39 37 37 38 38
10 18 25 20 24 6 6 9 7 19 11 9 12 11 17 11 17 18 7 9 9 16 26 23 24 22 27 31 34 38 40 41 40 40 42 43 41 40 41 41 38 36 35 33
Wind_Direction_850mb
271 282 282 275 272 282 264 261 238 180 186 207 221 227 230 28 271 224 260 278 288 285 242 217 235 210 212 193 215 201 214 242 214 203 203 255 271 237 247 248 259 315 278 317
265 273 282 281 264 244 220 255 252 216 191 223 222 222 240 234 256 235 237 251 245 206 274 254 228 224 236 197 203 198 192 224 236 157 198 207 245 232 263 276 315 281 289 81
259 264 276 279 249 232 226 270 225 192 210 245 292 209 216 228 219 257 257 280 302 255 244 242 243 224 159 219 217 148 203 227 234 221 226 202 209 238 229 241 259 284 131 185
256 256 265 272 246 228 215 243 252 337 202 221 233 259 211 222 211 216 214 247 244 242 255 219 220 230 164 203 151 199 195 233 232 247 307 225 186 213 227 237 259 284 321 346
251 252 261 269 257 229 225 281 295 237 272 254 210 211 234 230 208 221 209 236 219 252 246 312 311 239 206 186 178 215 200 239 231 192 186 183 210 220 241 275 300 278 290 288
244 251 253 267 268 236 239 250 279 284 237 214 232 217 228 217 234 214 257 224 335 256 337 346 306 294 303 316 175 191 192 214 220 205 196 227 233 238 251 272 259 284 309 75
241 246 248 261 270 240 253 254 281 276 248 229 207 231 211 228 200 248 203 191 264 15 324 304 263 255 238 235 228 188 201 214 222 158 180 216 48 355 306 269 277 267 228 159
244 241 243 247 263 261 242 256 224 279 282 254 236 253 233 239 247 242 256 250 265 313 299 254 201 188 204 206 178 195 197 206 161 213 227 342 311 273 240 241 256 232 238 147
240 238 238 237 255 268 259 244 237 261 306 249 326 239 220 240 225 226 226 232 255 276 270 230 215 186 195 178 167 165 184 251 205 158 200 238 254 298 235 260 258 241 187 167
237 235 234 232 242 261 261 248 233 232 284 271 278 266 314 248 304 251 171 156 244 220 245 250 217 223 239 190 178 175 177 189 192 197 251 225 150 222 169 230 339 90 157 166
237 234 230 229 232 255 268 260 230 235 231 261 287 264 294 326 277 271 38 228 206 225 241 248 240 91 314 203 140 168 180 163 236 225 207 220 165 174 221 126 134 146 155 160
235 234 230 227 225 245 263 249 243 275 244 258 267 275 260 265 280 318 303 328 319 23 290 278 48 90 3 228 156 133 208 177 335 346 85 320 157 74 117 135 150 154 153 157
229 232 231 228 224 234 247 257 256 253 290 293 259 257 254 250 250 249 278 97 1 86 336 320 58 264 193 203 153 175 167 146 233 242 142 155 157 143 158 153 145 146 152 157
226 230 229 229 225 228 235 273 244 230 292 272 283 233 237 243 239 237 242 264 300 297 288 281 286 276 355 24 45 291 112 157 177 319 129 139 165 170 165 160 146 141 148 156
224 225 226 229 226 226 248 262 260 212 234 317 293 300 242 221 221 228 234 244 270 274 244 225 244 328 304 317 287 236 170 214 205 101 140 98 127 156 156 152 147 148 152 155
219 221 223 227 225 217 255 220 253 227 222 292 296 288 244 211 215 218 220 230 242 236 244 250 262 359 287 230 209 33 82 70 43 107 101 108 125 137 144 145 146 149 152 155
213 217 219 224 224 211 237 279 166 198 176 234 274 251 215 198 191 213 219 223 230 229 233 237 251 182 215 231 197 111 106 101 100 113 105 109 128 141 143 144 146 145 148 151
204 210 212 222 227 231 241 249 282 297 191 258 251 268 166 186 187 212 205 205 208 218 240 232 232 192 230 242 192 146 136 103 126 165 34 159 147 142 142 146 144 147 149 151
193 193 194 211 215 218 214 225 262 261 198 273 258 252 205 175 203 217 191 208 209 216 216 235 210 220 215 208 252 191 207 184 163 174 138 143 151 149 148 152 155 154 152 154
177 163 180 207 199 215 198 189 201 207 201 238 262 247 272 200 189 214 175 193 221 208 214 214 222 237 203 225 217 236 182 169 176 175 160 167 164 161 162 163 159 157 158 157
163 186 213 159 168 180 192 209 203 179 210 211 236 234 247 230 225 207 215 193 223 220 178 198 204 222 191 194 204 192 186 192 195 190 176 180 174 169 166 162 159 159 160 160
179 191 185 153 182 210 210 193 191 203 225 188 209 204 209 246 225 95 272 230 226 229 148 192 227 199 166 165 172 146 170 175 172 177 170 168 168 169 166 161 159 160 161 162
181 214 197 193 196 212 212 193 186 216 213 208 190 187 197 207 177 78 300 211 235 160 196 195 216 135 156 167 161 172 170 168 162 159 161 160 161 162 162 159 159 160 161 163
200 196 237 222 203 215 213 226 187 205 310 317 252 178 188 189 158 117 267 251 309 223 195 199 165 157 166 169 172 169 170 165 165 162 160 157 156 155 157 160 161 161 162 163
219 203 221 209 240 282 206 142 138 297 307 319 269 193 206 195 172 185 225 242 187 218 202 184 138 146 162 168 167 166 166 165 164 162 159 156 154 156 157 160 161 162 162 163
232 224 247 232 219 236 208 200 148 247 295 300 254 220 187 213 166 188 216 228 217 161 142 94 116 151 162 161 160 161 163 164 161 162 159 157 158 159 158 158 162 165 164 166
238 223 222 240 214 216 355 139 157 200 270 232 200 211 196 171 215 213 229 201 57 83 94 91 100 145 159 160 158 160 163 162 160 159 158 157 156 156 156 159 164 166 167 168